FW9327 Weather Reports


Display with metric or nautical units.
time (UTC)temp
F
wind
direction
speed
MPH
gust
MPH
rain 1hr
in
rain 24hr
in
rain mn
in
humidity
%
barometer
mb
20260904200110 92 5 1.0 6.0 0.00 0.00 0.00 61 1012.8
20260904194604 91 5 1.0 5.0 0.00 0.00 0.00 65 1013.0
20260904193100 89 5 1.0 8.0 0.00 0.00 0.00 67 1013.2
20260904191555 89 5 1.0 10.0 0.00 0.00 0.00 67 1013.4
20260904190106 87 5 2.0 9.0 0.00 0.00 0.00 71 1013.6
20260904184611 87 5 4.0 11.0 0.00 0.00 0.00 68 1013.8
20260904183056 86 5 5.0 13.0 0.00 0.00 0.00 69 1014.0
20260904181553 86 5 6.0 13.0 0.00 0.00 0.00 69 1014.2
20260904180114 85 5 8.0 14.0 0.00 0.00 0.00 67 1014.9
20260904174619 85 5 6.0 16.0 0.00 0.00 0.00 68 1015.4
20260904173053 85 5 5.0 14.0 0.00 0.00 0.00 70 1015.8
20260904171604 83 5 3.0 13.0 0.00 0.00 0.00 73 1015.8
20260904170058 83 5 4.0 13.0 0.00 0.00 0.00 70 1015.9
20260904164556 85 5 4.0 12.0 0.00 0.00 0.00 70 1016.2
20260904163055 85 5 3.0 12.0 0.00 0.00 0.00 70 1015.9
20260904161605 86 5 2.0 11.0 0.00 0.00 0.00 70 1015.7
20260904160101 88 5 3.0 10.0 0.00 0.00 0.00 70 1015.5
20260904154555 88 5 2.0 8.0 0.00 0.00 0.00 71 1015.1
20260904153116 88 5 2.0 8.0 0.00 0.00 0.00 72 1014.8
20260904151605 87 5 2.0 8.0 0.00 0.00 0.00 72 1014.5
20260904150056 88 5 2.0 8.0 0.00 0.00 0.00 70 1014.5
20260904144553 88 5 1.0 6.0 0.00 0.00 0.00 69 1014.4
20260904143105 88 5 0.0 4.0 0.00 0.00 0.00 69 1014.3
20260904141559 87 5 0.0 3.0 0.00 0.00 0.00 72 1014.3
20260904140101 85 5 1.0 3.0 0.00 0.00 0.00 74 1014.0
20260904134609 83 5 1.0 3.0 0.00 0.00 0.00 77 1014.1
20260904133105 82 5 1.0 4.0 0.00 0.00 0.00 80 1014.0
20260904131557 80 0 0.0 2.0 0.00 0.00 0.00 86 1014.1
20260904130103 78 0 0.0 2.0 0.00 0.00 0.00 91 1013.7
20260904124600 76 0 0.0 1.0 0.00 0.00 0.00 94 1013.4
20260904123057 74 0 0.0 2.0 0.00 0.00 0.00 95 1013.2
20260904121556 72 0 0.0 0.0 0.00 0.00 0.00 95 1012.7
20260904120107 71 0 0.0 0.0 0.00 0.00 0.00 93 1012.6
20260904114600 72 0 0.0 0.0 0.00 0.00 0.00 93 1012.5
20260904113057 72 0 0.0 1.0 0.00 0.00 0.00 93 1012.4
20260904111557 72 0 0.0 2.0 0.00 0.00 0.00 93 1012.3
20260904110052 73 0 0.0 2.0 0.00 0.00 0.00 94 1012.2
20260904104602 73 0 0.0 2.0 0.00 0.00 0.00 94 1012.0
20260904103102 73 360 0.0 3.0 0.00 0.00 0.00 94 1012.0
20260904101556 73 0 1.0 5.0 0.00 0.00 0.00 94 1011.8
20260904100100 72 360 1.0 4.0 0.00 0.00 0.00 94 1012.1
20260904094607 72 0 0.0 0.0 0.00 0.00 0.00 93 1012.1
20260904093103 72 0 0.0 1.0 0.00 0.00 0.00 93 1012.5
20260904091554 73 0 0.0 1.0 0.00 0.00 0.00 93 1012.8
20260904090059 73 0 0.0 0.0 0.00 0.00 0.00 93 1012.8
20260904084558 74 0 0.0 0.0 0.00 0.00 0.00 93 1012.8
20260904083053 74 0 0.0 1.0 0.00 0.00 0.00 93 1012.8
20260904081550 74 0 0.0 1.0 0.00 0.00 0.00 93 1012.7
20260904080058 74 360 0.0 2.0 0.00 0.00 0.00 93 1012.3
20260904074556 74 0 0.0 1.0 0.00 0.00 0.00 93 1012.1
20260904073059 74 0 0.0 2.0 0.00 0.00 0.00 93 1012.1
20260904071602 74 0 0.0 2.0 0.00 0.00 0.00 93 1012.0
20260904070059 74 0 0.0 0.0 0.00 0.00 0.00 92 1012.1
20260904064557 74 0 0.0 1.0 0.00 0.00 0.00 92 1012.7
20260904063102 75 0 0.0 0.0 0.00 0.00 0.00 91 1013.0
20260904061603 75 0 0.0 2.0 0.00 0.00 0.00 91 1013.1
20260904060057 75 0 0.0 1.0 0.00 0.00 0.00 90 1013.4
20260904054558 76 0 0.0 1.0 0.00 0.00 0.00 90 1013.4
20260904053139 76 360 0.0 2.0 0.00 0.00 0.00 90 1013.5
20260904051601 76 360 0.0 2.0 0.00 0.00 0.00 90 1013.4
20260904050059 76 0 0.0 2.0 0.00 0.00 0.00 91 1013.1
20260904044603 76 0 0.0 2.0 0.00 0.00 0.00 92 1013.2
20260904043100 76 0 0.0 3.0 0.00 0.00 0.00 93 1013.2
20260904041606 76 0 0.0 3.0 0.00 0.00 0.00 93 1013.2
20260904040056 76 0 0.0 1.0 0.00 0.00 0.00 93 1013.4
20260904034602 76 0 0.0 1.0 0.00 0.00 0.00 93 1013.3
20260904033107 77 360 0.0 2.0 0.00 0.00 0.00 93 1013.2
20260904031604 77 0 0.0 0.0 0.00 0.00 0.00 92 1013.4
20260904024601 77 0 0.0 1.0 0.00 0.00 0.00 91 1013.4
20260904023103 77 0 0.0 1.0 0.00 0.00 0.00 90 1013.2
20260904021553 77 0 0.0 1.0 0.00 0.00 0.00 90 1013.2
20260904020126 78 0 0.0 0.0 0.00 0.00 0.00 89 1013.2
20260904014646 78 0 0.0 0.0 0.00 0.00 0.00 88 1013.1
20260904013110 79 0 0.0 0.0 0.00 0.00 0.00 87 1012.8
20260904011603 79 0 0.0 0.0 0.00 0.00 0.00 86 1012.3
20260904010100 80 0 0.0 2.0 0.00 0.00 0.00 86 1011.9
20260904004603 80 0 0.0 2.0 0.00 0.00 0.00 84 1011.7
20260904003109 81 0 0.0 3.0 0.00 0.00 0.00 82 1011.7
20260904001600 82 0 0.0 1.0 0.00 0.00 0.00 81 1011.7
20260903234607 85 0 0.0 0.0 0.00 0.00 0.00 77 1011.9
20260903233056 87 0 0.0 0.0 0.00 0.00 0.00 75 1011.8
20260903231553 88 0 0.0 1.0 0.00 0.00 0.00 72 1011.9
20260903230107 90 0 0.0 1.0 0.00 0.00 0.00 68 1012.2
20260903224557 91 0 0.0 3.0 0.00 0.00 0.00 62 1012.2
20260903223101 93 0 0.0 1.0 0.00 0.00 0.00 64 1012.2
20260903221600 95 0 0.0 2.0 0.00 0.00 0.00 61 1012.4
20260903220105 95 5 0.0 2.0 0.00 0.00 0.00 58 1012.3
20260903214554 95 0 0.0 3.0 0.00 0.00 0.00 56 1012.4
20260903213058 94 0 1.0 5.0 0.00 0.00 0.00 56 1012.3
20260903211559 94 5 1.0 3.0 0.00 0.00 0.00 59 1012.4
20260903210058 93 0 2.0 5.0 0.00 0.00 0.00 58 1012.4
20260903204549 92 5 2.0 5.0 0.00 0.00 0.00 60 1012.5
20260903203057 91 5 1.0 5.0 0.00 0.00 0.00 63 1012.6
20260903201558 90 5 1.0 6.0 0.00 0.00 0.00 66 1012.7